Find Starlink 5193

NORAD ID: 54095 Int'l Des: 2022-136 Owner: SPXS Country: US Constellation: starlink operational
LEOCIRCULAR

当前视图

正在加载3D地球...

关于 Starlink 5193

正在加载描述...

即将过境

Passes for default location (London). Set your location on the main map for personalized predictions.

高度历史

Loading altitude history...

两行轨道根数

1 54095U 22136AW 26150.06527627 -.00000924 00000-0 -39992-4 0 9999
2 54095 53.1995 328.4743 0001608 38.1990 321.9115 15.08838237199278
Epoch: May 30, 2026 • Age: 11 hours

当前状态

高度 540.3 km
速度 7.59 km/s
星下点 -3.35°S, 114.29°W
发射日期 Oct 20, 2022
运行时间 3.6 years
类型 internet

技术详情

分类 Payload
质量 305.00 kg
干质量 290.00 kg
总质量 305.00 kg
长度 0.20 m
直径 2.80 m
跨度 9.00 m
形状 Box + pan
制造商 SPXS
平台类型 Starlink
阶段状态 In Orbit
所有者/国家 SPXS/US

Most Searched